{"data":{"norad_id":61594,"intl_designator":"2024-188A","name":"ONEWEB-0015","alt_names":[],"object_type":"PAYLOAD","status":"ACTIVE","operator":null,"country":"UK","launch_date":"2024-10-20","launch_site_code":"AFWTR","launch_vehicle":null,"mission":null,"orbit_class":"UNKNOWN","rcs_meters":null,"size_class":null,"mass_kg":null,"dimensions":null,"purposes":["comms"],"wikipedia_slug":null,"has_3d_model":false,"image_url":null,"decayed_at":null,"tle_current":{"epoch":"2026-09-19T12:51:48.361824Z","epoch_age_seconds":101666,"freshness":"FRESH","line1":"1 61594U 24188A   26262.53597641 -.00000491  00000+0 -14200-2 0  9990","line2":"2 61594  87.8962   2.3337 0002239 109.6536 250.4834 13.11417393 96825","mean_motion":13.11417393,"eccentricity":0.0002239,"inclination_deg":87.8962,"raan_deg":2.3337,"arg_perigee_deg":109.6536,"mean_anomaly_deg":250.4834,"bstar":-0.00142,"rev_number":9682,"period_min":109.80485752944,"perigee_km":1215.9802648326,"apogee_km":1219.3816721189,"semimajor_km":7595.8179684758,"source":"CELESTRAK","updated_at":"2026-09-20T09:00:44.797822Z"}}}